GFSSE_2pvu_pres_000.txt.gz
Presure
147 156 109 156 135 155 162 128 163 122 137 135 172 208 250 207 204 152 237 123 134 128 184 175 186 224 204 235 237 143 214 223 221 179 156 214 122 158 142 94 217 111 79
147 166 160 151 169 179 183 159 138 210 184 200 198 125 125 110 128 113 206 153 119 85 198 188 118 213 149 221 220 124 215 229 215 261 132 118 228 126 93 88 227 167 120
167 163 172 175 170 172 164 224 158 187 160 181 204 221 185 196 182 196 178 210 148 127 127 158 127 144 107 151 128 185 226 233 252 229 144 232 250 146 132 103 119 89 108
185 166 182 192 164 222 241 191 211 222 229 224 242 206 196 231 177 144 162 147 191 194 141 253 168 165 148 135 173 134 227 171 247 187 230 229 241 181 207 254 237 188 113
208 259 204 185 199 179 233 196 229 223 226 215 245 227 220 262 176 189 186 182 169 180 178 191 156 116 171 215 205 192 193 201 95 138 217 138 229 225 241 110 180 230 127
204 241 219 231 226 227 229 232 219 224 221 228 226 223 252 282 192 177 195 161 235 170 191 144 155 230 200 197 140 193 165 162 218 254 226 136 133 135 218 218 239 240 226
251 231 238 234 244 229 229 230 225 229 225 218 233 294 283 250 217 196 181 180 193 176 168 168 167 201 194 191 250 252 243 245 227 223 232 208 222 111 119 219 208 158 246
220 244 251 240 235 232 224 224 224 220 213 217 267 220 291 277 237 219 202 180 174 186 188 172 181 178 181 181 183 230 228 254 221 215 224 223 195 229 210 182 148 128 217
266 245 250 232 220 228 222 220 212 212 216 213 239 260 257 235 219 220 222 232 189 215 180 178 184 197 198 194 189 176 193 220 220 216 222 198 206 219 115 220 219 224 192
226 240 237 240 231 229 221 214 208 203 205 198 251 271 247 238 233 221 218 204 202 221 195 182 179 182 184 185 186 183 183 227 225 213 206 207 202 206 201 191 208 216 223
244 240 239 228 222 218 217 208 203 200 203 249 247 262 238 216 210 216 198 180 197 196 189 185 188 176 184 185 205 246 223 243 226 219 211 202 223 210 200 213 191 190 203
238 229 231 225 223 214 214 215 205 205 192 200 245 256 234 201 210 184 203 198 193 190 202 196 178 199 200 204 182 199 202 219 213 230 224 214 205 194 200 203 196 202 206
232 232 226 221 220 216 204 207 201 200 198 202 235 231 251 197 202 193 192 184 185 186 175 170 184 192 190 185 183 205 217 211 203 225 220 209 190 212 212 208 191 200 204
227 225 218 214 212 216 216 210 205 200 193 191 218 223 245 199 195 201 188 187 194 174 168 184 192 185 180 200 195 191 200 227 203 206 204 208 203 199 203 202 219 213 206
221 217 216 217 214 225 200 215 202 206 188 190 195 212 228 219 210 195 190 187 189 175 172 187 190 194 180 175 204 174 180 231 203 207 201 196 190 206 197 210 189 205 194
215 213 210 212 212 212 221 228 218 208 192 194 191 184 213 220 209 198 197 194 185 191 191 171 198 196 182 195 177 181 174 203 172 200 199 195 196 192 192 191 194 194 197
275 237 229 233 228 229 232 219 226 223 208 197 186 200 205 212 218 197 183 209 182 191 194 199 181 181 193 187 192 194 192 169 211 211 190 202 199 215 214 246 214 207 209
262 277 290 200 203 283 225 230 239 229 227 207 194 196 185 194 184 206 197 180 185 202 185 201 188 187 191 190 186 200 196 169 202 169 172 193 213 218 211 206 215 210 197
261 197 228 258 264 224 243 271 253 223 242 219 210 194 185 181 185 202 192 191 186 177 192 211 203 187 192 199 184 218 205 183 176 204 174 193 200 216 190 202 202 189 200
237 202 228 266 262 223 206 233 262 273 233 226 239 203 194 195 192 201 187 190 184 185 182 186 203 201 194 187 204 198 213 190 181 199 178 208 180 204 200 180 200 217 198
175 196 231 229 205 232 179 253 206 172 228 234 230 243 242 200 195 196 196 192 186 182 198 193 199 195 215 196 193 188 214 187 203 211 183 197 172 175 170 199 180 170 206
192 182 219 213 213 229 204 196 208 240 249 250 267 225 238 233 215 205 206 198 198 187 201 190 194 195 196 183 181 198 200 200 208 170 182 199 179 183 193 215 198 192 174
191 207 204 215 210 220 231 237 250 227 233 229 227 222 265 278 254 235 210 207 194 186 193 199 192 192 193 196 196 194 193 193 199 223 202 192 212 177 196 196 199 200 174
194 198 207 212 220 218 192 207 226 260 248 275 265 247 278 278 248 257 274 218 213 205 200 200 200 195 194 207 193 189 192 188 189 193 203 205 193 204 179 187 213 199 184
211 195 210 195 212 214 190 201 197 224 263 253 280 283 258 281 277 278 289 269 234 199 211 209 205 192 194 204 211 194 203 200 194 184 206 202 201 238 183 186 208 178 200
202 211 204 215 216 213 218 224 221 228 251 244 207 157 273 264 273 283 276 283 288 297 215 234 211 218 215 214 206 193 195 203 207 205 206 202 198 203 185 184 181 190 185

GFSSE_2pvu_pres_006.txt.gz
Presure
148 140 147 136 147 128 130 133 146 158 155 165 162 169 152 160 152 202 183 155 230 180 215 229 204 176 152 113 145 136 150 78 250 239 203 143 229 230 118 95 83 194 116
136 169 147 165 166 124 154 172 173 185 169 179 177 171 151 200 106 199 200 256 235 130 217 210 202 97 203 97 124 133 188 120 243 130 216 210 230 225 209 207 93 236 181
158 157 170 168 168 163 169 176 178 168 175 194 191 208 234 141 138 262 210 196 207 204 219 147 146 173 123 133 199 199 196 206 130 212 166 111 191 155 205 102 85 189 83
173 169 186 190 178 176 190 196 199 187 229 224 211 199 208 242 240 67 251 236 216 207 216 212 202 167 144 181 199 183 193 190 149 233 163 191 159 195 170 201 215 86 181
182 179 187 210 195 187 223 204 233 243 206 251 243 238 239 240 229 265 177 214 209 214 219 185 201 180 178 190 171 178 174 183 199 187 233 127 194 173 127 129 122 118 88
239 222 206 229 210 283 183 226 243 217 238 237 231 264 227 246 230 241 222 220 194 192 190 139 193 169 172 191 181 100 208 180 83 217 193 178 151 185 193 182 135 144 133
276 286 238 240 271 241 258 239 270 243 245 244 255 238 229 229 222 232 223 227 203 192 214 189 193 173 124 85 108 193 144 197 146 142 140 198 184 175 204 194 201 199 115
233 269 267 275 255 266 248 254 253 244 246 232 239 230 238 243 246 239 226 205 199 209 190 189 188 170 165 183 191 186 179 189 191 201 185 179 174 147 173 151 188 205 215
268 281 263 277 260 265 254 262 252 241 244 248 244 243 242 242 232 235 233 200 191 198 196 176 179 179 175 183 176 179 179 163 166 203 177 162 180 204 190 175 191 177 222
276 272 279 256 268 255 257 260 252 242 231 235 231 233 233 236 227 228 225 239 195 190 193 177 175 170 183 190 185 179 169 176 176 173 180 189 126 123 173 174 196 170 170
266 266 258 263 259 256 252 249 245 243 241 238 237 231 231 234 239 222 215 215 192 195 183 184 179 187 187 186 182 175 195 167 206 178 172 169 173 175 172 177 171 183 191
266 261 255 255 254 252 251 230 240 240 235 231 223 230 218 220 228 222 219 209 200 194 180 182 174 181 187 185 190 192 198 171 201 181 169 169 178 169 183 188 183 185 181
246 242 249 245 248 248 247 241 241 235 223 221 221 219 225 209 219 213 214 205 202 211 179 181 183 182 212 192 180 176 184 178 171 170 170 178 179 181 182 186 189 178 181
273 261 249 239 245 245 231 237 238 236 227 227 225 218 226 225 217 214 217 210 202 205 188 213 186 183 178 177 184 171 177 169 179 168 177 186 181 183 179 176 170 213 185
277 299 252 215 232 287 275 294 264 236 223 216 211 215 216 210 211 223 215 214 210 210 197 231 268 195 191 179 178 187 180 183 169 173 179 190 180 181 177 185 180 180 182
211 218 240 232 229 213 216 245 196 257 248 252 240 222 216 216 215 219 201 218 211 207 199 236 260 229 184 193 183 178 179 178 178 176 181 184 178 178 180 186 184 170 188
241 249 188 187 240 228 235 189 245 206 221 252 249 227 240 260 215 219 221 231 211 211 205 217 251 251 193 184 185 188 180 182 171 173 182 185 194 183 201 189 159 193 188
198 172 202 203 219 178 218 161 202 229 198 205 227 244 214 217 215 249 253 278 236 213 213 203 237 248 226 234 181 183 185 187 187 180 176 180 184 189 181 186 186 200 197
203 185 192 195 180 190 195 218 190 206 198 201 211 214 188 233 204 230 232 233 252 274 219 205 204 239 225 225 223 205 182 181 181 180 177 182 184 181 211 188 205 188 182
176 194 187 205 204 199 191 212 186 196 205 172 215 169 172 224 201 237 212 209 238 267 257 225 201 214 236 215 216 212 216 225 219 204 202 188 188 188 203 203 190 224 187
192 183 184 171 196 208 195 198 199 218 220 217 192 183 218 225 209 228 184 217 231 248 270 263 246 203 226 211 214 216 214 210 210 209 216 206 207 183 198 212 212 188 200
207 203 202 202 202 203 202 205 209 203 212 215 219 227 204 202 194 234 214 220 213 196 221 236 251 233 208 229 202 213 212 206 208 206 204 208 200 202 203 208 193 196 211
191 190 192 190 197 192 186 199 195 206 213 210 215 216 222 214 232 239 231 222 207 242 243 213 303 246 249 218 224 232 210 202 210 196 206 202 199 201 196 196 187 196 190
194 190 195 193 192 198 192 192 203 199 204 202 208 214 216 216 224 224 239 225 219 235 227 210 323 309 208 289 232 218 208 216 207 211 193 184 185 202 202 210 204 207 205
185 187 186 189 189 189 196 189 188 203 202 205 208 214 215 218 226 224 240 253 234 222 256 288 316 332 201 294 296 236 223 205 214 203 205 205 202 196 193 188 209 182 195
190 182 193 190 187 187 190 193 202 193 199 200 209 218 221 216 223 231 241 251 243 267 287 299 335 335 320 319 242 288 243 225 220 240 221 214 198 197 208 195 185 189 197

GFSSE_2pvu_pres_009.txt.gz
Presure
150 139 109 111 108 166 147 155 141 175 161 137 148 132 201 148 150 151 144 156 158 167 186 152 197 190 143 168 162 235 182 154 187 226 194 226 154 247 185 197 167 125 156
163 168 157 158 170 171 180 179 190 170 163 183 158 172 136 132 131 145 198 190 176 228 239 144 232 106 116 207 215 160 218 138 126 172 207 207 149 248 255 218 169 226 206
160 163 163 166 166 165 181 166 159 188 236 194 189 214 210 221 217 223 226 228 184 238 217 235 205 204 213 204 190 186 211 151 213 225 201 192 132 132 179 225 227 150 113
170 155 179 191 165 198 204 215 232 230 229 228 216 227 213 203 242 195 258 217 251 247 247 215 221 227 208 74 106 176 200 197 158 200 170 189 157 126 220 210 174 133 216
201 202 201 182 192 239 209 232 227 228 226 247 236 240 236 250 230 245 247 235 219 249 241 237 218 213 213 209 196 200 84 180 152 199 182 177 175 179 208 154 131 173 189
176 183 241 242 275 244 295 289 281 277 280 271 244 253 254 243 258 236 242 228 257 231 229 256 219 221 217 195 180 198 157 170 188 210 188 225 240 206 177 213 201 212 135
224 243 232 236 223 222 152 183 224 215 238 255 239 254 253 233 259 249 249 249 224 224 232 211 213 184 88 183 191 136 138 199 198 198 185 172 177 178 209 173 186 258 207
248 243 240 262 258 245 233 253 255 256 266 269 250 259 207 251 243 239 241 233 231 227 205 227 210 189 182 192 192 191 184 183 185 184 164 215 182 186 205 206 190 150 192
255 246 264 281 270 285 243 271 259 269 270 256 261 255 255 237 250 246 231 241 242 224 195 195 207 207 188 208 191 190 177 187 187 182 213 195 220 196 167 187 196 199 166
269 274 255 256 265 263 263 259 257 258 252 254 247 240 238 241 232 229 239 230 239 233 216 200 194 197 184 178 179 184 178 190 180 209 186 180 204 195 176 192 204 154 170
284 275 267 267 263 261 256 257 249 247 246 244 239 233 239 234 238 239 240 233 233 228 231 202 201 194 197 182 179 189 183 192 216 222 181 181 187 203 177 202 188 184 168
259 244 244 249 247 245 234 244 247 247 240 240 224 223 227 231 231 225 225 232 237 226 220 211 207 194 186 190 193 198 184 175 181 181 181 179 176 187 173 197 190 162 177
288 274 279 249 239 236 314 302 295 230 230 231 234 238 236 232 225 225 227 221 227 229 220 211 208 222 192 192 185 214 193 180 173 189 186 178 194 194 191 168 181 174 134
218 242 243 251 250 239 220 223 217 264 265 266 264 234 231 225 231 238 223 225 208 225 216 213 209 237 207 185 172 183 183 173 160 168 173 188 178 183 193 180 173 186 131
236 224 216 199 198 217 236 242 200 250 206 234 229 240 242 254 246 229 222 224 225 218 226 212 195 201 195 211 194 185 174 176 174 179 184 163 170 183 198 189 183 194 177
182 211 199 227 212 195 196 191 202 203 204 218 230 215 199 240 237 253 253 251 225 214 229 219 208 201 192 197 194 203 174 181 183 185 180 186 180 193 193 183 176 180 186
213 202 185 182 200 206 176 212 211 207 203 186 190 222 216 216 246 240 227 235 240 236 264 217 226 197 202 190 196 185 184 194 170 172 182 181 189 183 192 188 180 187 175
215 186 195 200 176 204 192 192 170 192 210 218 212 216 229 225 213 204 209 215 191 221 223 259 232 248 218 193 210 182 181 189 184 191 189 173 180 183 189 201 179 181 191
189 183 199 195 184 192 205 195 184 190 186 191 182 205 208 193 183 201 225 193 228 229 239 237 243 253 252 267 193 208 189 217 196 177 188 196 182 194 184 180 194 187 172
193 200 198 197 194 194 196 203 194 182 186 189 201 187 206 214 216 217 218 207 213 228 206 202 240 226 238 262 270 228 195 184 242 193 220 189 191 188 185 190 191 174 177
192 194 181 188 193 195 192 192 193 193 192 198 195 196 196 204 187 201 214 215 225 229 233 222 180 249 240 229 229 264 276 204 219 248 233 228 206 193 191 182 184 184 189
196 188 189 190 193 183 185 188 192 193 193 203 203 203 188 199 204 205 204 210 209 217 218 226 236 245 235 238 243 210 268 279 205 221 239 228 224 223 197 218 202 189 189
180 188 199 191 187 193 194 193 194 192 178 192 198 197 194 193 194 201 204 209 223 218 223 238 245 246 240 264 246 240 224 269 291 199 212 239 222 218 227 204 193 192 196
183 170 167 177 184 186 192 197 195 191 194 191 198 195 193 195 194 199 205 208 212 235 219 236 228 236 249 261 255 253 247 261 276 301 290 214 237 224 218 219 226 219 202
183 191 189 182 186 185 179 188 197 194 195 201 194 191 197 199 196 194 207 211 220 234 234 244 250 242 271 273 309 332 335 252 286 318 295 282 218 238 226 215 217 214 214
180 168 178 183 182 185 188 189 187 196 198 196 192 194 193 204 208 200 201 208 224 255 261 252 255 254 294 310 348 385 325 320 298 316 313 290 264 226 238 223 216 214 217

GFSSE_2pvu_pres_015.txt.gz
Presure
164 144 159 150 160 174 139 141 149 159 179 177 144 149 158 196 186 228 203 185 242 170 217 157 248 200 99 237 125 171 188 155 159 154 160 165 182 215 163 145 162 158 168
129 155 154 157 129 170 176 140 159 179 180 167 180 194 214 179 223 226 216 204 233 237 228 243 275 235 200 223 250 153 236 152 233 139 168 160 161 229 134 143 160 169 163
160 130 133 167 156 169 181 151 172 162 163 188 235 192 225 242 236 237 238 226 226 233 237 231 219 267 242 255 250 244 160 225 137 249 164 152 209 134 193 229 151 173 157
160 156 158 161 173 167 161 193 187 192 241 243 252 229 226 232 247 246 271 254 252 234 249 260 249 256 236 247 250 238 233 244 249 224 164 237 212 152 179 172 182 184 221
161 180 185 191 164 184 195 225 226 231 282 245 262 255 254 256 250 240 240 255 252 228 235 234 258 255 261 234 232 239 236 228 232 211 235 149 222 220 214 200 202 211 213
189 174 170 207 222 226 234 266 267 249 257 263 257 251 240 240 243 239 252 228 226 236 257 240 240 253 234 245 236 219 226 222 217 215 216 204 206 218 222 217 201 215 200
189 221 250 263 293 259 259 252 274 259 243 244 248 262 284 262 257 247 271 255 242 270 250 257 252 230 241 221 231 216 213 216 227 222 225 211 110 217 217 201 199 211 207
305 298 278 268 238 257 261 259 257 246 267 266 268 266 257 267 260 266 262 264 263 254 251 260 239 228 236 218 219 218 220 221 210 210 220 197 204 206 202 196 213 212 209
309 291 281 273 264 263 277 292 269 273 276 256 263 259 253 252 250 248 247 250 253 252 246 248 246 230 231 217 226 234 221 215 202 206 205 211 210 205 85 187 209 144 146
253 284 276 325 265 243 252 256 253 242 259 254 264 263 255 251 246 242 239 239 243 238 240 238 230 247 244 219 224 233 223 205 207 199 127 200 212 200 193 194 177 187 223
311 256 279 272 265 264 249 274 293 287 291 296 284 283 281 269 250 229 232 223 222 233 238 234 234 220 219 217 217 219 234 196 213 204 192 215 193 203 199 199 182 192 207
243 230 238 235 252 253 243 237 229 227 221 252 224 225 232 231 242 237 249 253 256 221 226 229 231 228 222 219 222 216 209 206 196 204 187 188 199 201 183 200 191 215 225
238 230 243 240 212 221 210 235 198 225 232 222 227 229 215 234 230 233 228 235 237 235 250 247 221 225 224 225 212 221 228 212 241 206 147 183 202 210 194 199 209 186 181
221 213 169 209 211 166 212 213 206 211 205 207 202 202 205 207 205 209 214 226 218 222 236 234 241 247 227 213 216 214 217 210 207 209 192 186 182 179 103 216 207 208 181
208 209 214 199 207 200 197 201 193 192 192 189 193 177 201 205 200 205 201 195 193 205 185 217 221 229 227 234 237 205 213 217 216 197 193 183 182 188 189 182 174 181 196
207 212 195 197 197 197 190 192 187 192 195 196 192 194 188 192 193 186 200 181 203 215 209 199 200 204 216 216 226 228 202 211 209 221 194 193 190 180 174 190 188 184 186
211 200 211 212 193 197 201 185 199 198 203 205 201 203 206 203 204 202 194 206 143 194 196 200 212 215 204 204 218 221 222 215 231 206 213 212 191 194 179 180 182 180 177
198 194 198 194 193 193 194 192 169 188 195 196 195 195 196 207 200 191 192 197 204 204 205 201 201 213 211 205 204 207 215 213 232 231 216 207 206 201 193 194 174 174 173
181 187 182 179 182 184 182 180 181 178 181 189 184 184 186 188 192 195 194 192 190 194 196 199 200 196 204 207 202 213 218 208 211 228 229 228 215 207 212 200 190 190 191
182 175 183 193 170 174 185 184 179 167 187 185 183 184 184 185 185 187 184 193 193 194 195 193 192 197 201 208 208 213 208 214 212 232 215 234 201 236 219 206 208 198 191
184 167 179 172 174 182 176 172 173 169 187 187 184 180 178 180 183 182 184 186 191 184 187 191 195 197 200 207 213 213 221 215 217 222 226 241 226 231 218 210 198 207 208
174 175 180 181 182 174 178 172 181 177 168 175 173 170 166 174 173 172 174 182 188 195 194 191 185 188 190 207 212 219 213 223 219 227 223 228 232 243 264 250 244 203 205
170 159 186 188 181 183 185 189 182 191 176 186 189 187 193 185 179 188 172 175 179 184 187 193 200 199 193 199 202 209 214 219 232 226 234 225 248 235 248 273 251 249 253
161 159 136 171 185 185 174 173 174 141 189 186 132 186 185 183 182 193 197 194 197 206 195 194 198 191 201 197 197 204 209 213 245 246 236 248 257 263 247 300 278 257 253
125 150 125 182 127 146 186 127 164 191 144 185 170 193 192 194 195 194 202 206 205 206 202 203 200 203 197 212 227 228 233 249 247 258 265 251 266 269 254 301 305 259 269
155 125 175 170 174 175 181 184 179 180 190 187 188 194 201 203 200 203 205 210 213 218 227 233 237 246 243 250 253 246 249 246 265 270 268 271 258 245 306 316 311 296 263

GFSSE_2pvu_pres_018.txt.gz
Presure
147 156 155 159 130 137 140 127 149 145 142 147 157 170 153 196 159 158 166 179 167 201 234 198 227 246 245 199 200 132 197 246 258 155 146 150 173 141 135 149 148 142 174
127 126 127 127 138 142 165 160 141 157 171 196 202 204 213 189 214 247 222 215 241 180 230 230 237 251 243 233 232 237 279 255 127 127 124 247 226 228 153 123 145 156 180
146 151 151 145 152 153 161 176 173 160 197 179 198 216 227 218 267 228 244 251 251 262 253 255 247 262 261 271 258 278 238 228 218 243 260 243 233 229 214 223 176 218 156
151 155 136 137 159 157 166 183 179 203 213 225 249 243 256 249 288 250 254 274 265 249 245 256 245 251 224 218 219 259 255 261 250 255 242 231 230 246 236 234 155 213 230
152 155 147 162 172 178 164 177 216 252 238 254 248 278 271 256 253 253 260 243 236 235 235 235 260 251 246 248 228 230 215 226 250 224 233 269 223 232 232 115 224 230 223
155 170 183 167 191 207 226 217 252 258 282 266 262 234 258 256 257 240 243 227 227 234 240 232 225 230 232 229 242 238 258 249 246 231 236 220 238 235 214 235 205 225 217
171 177 221 236 263 225 300 291 273 244 262 264 265 273 262 263 287 274 271 281 281 271 259 265 240 242 244 227 233 236 256 247 235 231 225 243 213 210 219 202 222 217 214
187 261 291 258 307 228 289 281 270 269 280 266 258 261 270 253 254 262 258 259 264 265 261 259 266 265 265 256 253 249 202 239 229 226 220 204 206 226 209 212 209 178 196
277 284 309 298 271 257 268 265 256 255 257 247 247 274 255 264 262 253 249 247 242 242 244 247 251 250 242 249 249 212 231 246 235 217 235 205 206 220 204 201 218 200 191
207 296 287 289 341 340 335 334 332 290 324 313 264 249 259 258 252 264 256 233 240 231 236 240 238 240 238 242 225 247 226 218 230 210 205 206 199 205 203 211 211 199 213
258 229 246 252 236 242 239 227 231 209 242 190 229 203 249 231 233 248 243 241 249 255 262 237 228 230 236 236 238 233 239 217 221 224 208 207 213 208 200 217 202 201 202
223 248 226 230 226 239 230 238 239 230 216 214 226 244 225 221 215 214 232 213 212 233 240 247 250 230 224 225 225 221 229 226 223 222 224 208 213 213 222 214 196 202 190
246 236 211 227 216 224 211 194 183 197 199 204 206 205 192 205 198 214 210 210 219 226 219 199 235 242 243 244 222 223 225 225 219 203 208 211 184 199 206 195 206 191 191
222 228 226 213 207 204 194 194 204 197 201 198 202 200 196 200 198 196 204 206 203 183 200 206 214 217 223 232 237 247 213 214 224 212 219 208 196 204 196 203 198 189 193
210 207 205 205 212 210 198 187 199 198 201 204 201 200 189 199 195 201 198 200 200 196 194 208 205 212 199 209 217 219 226 206 223 214 209 216 203 211 186 198 193 203 219
214 206 203 200 194 193 188 189 192 193 164 190 183 190 194 194 197 197 201 197 194 191 192 195 197 197 197 207 201 202 209 217 225 218 228 225 221 194 196 199 181 190 189
195 190 186 182 185 189 180 190 192 184 187 188 185 185 186 185 184 185 185 188 193 195 197 195 191 201 198 202 192 195 197 202 201 219 221 224 212 218 204 206 192 191 185
191 175 179 177 173 187 173 172 180 182 181 179 174 171 183 191 187 183 183 184 183 183 186 189 192 195 198 200 202 192 195 196 197 205 196 220 225 209 229 220 191 201 193
179 192 191 187 187 181 182 174 180 177 169 171 187 188 178 174 180 180 175 176 182 182 184 185 186 191 190 191 195 199 195 199 197 198 201 212 211 215 210 216 214 195 191
181 181 167 166 180 187 188 189 187 184 187 176 187 175 182 185 160 184 190 183 185 174 176 175 176 180 181 185 193 194 192 194 196 200 202 219 214 208 210 218 236 221 210
177 184 179 192 171 155 186 185 181 183 131 187 172 172 177 184 185 194 191 196 200 197 173 191 195 198 189 179 180 184 188 199 201 195 188 203 206 222 214 207 223 217 234
118 177 155 155 140 182 131 139 147 125 175 176 181 177 191 157 188 158 142 202 202 202 167 203 206 197 197 201 206 204 207 195 195 200 202 202 194 203 212 216 211 208 224
128 126 174 170 167 132 152 162 181 124 172 141 172 142 186 162 184 170 169 162 204 176 193 210 223 230 228 218 206 211 202 204 200 202 201 200 205 203 205 210 214 222 243
155 131 124 137 166 134 125 156 176 119 137 127 191 146 171 171 187 137 206 160 145 228 220 226 230 234 231 231 228 228 230 238 233 236 237 233 234 236 241 234 211 218 243
145 160 166 164 154 163 123 119 170 173 173 183 186 193 185 197 211 217 221 225 206 224 100 233 229 243 229 249 251 260 261 259 241 250 248 246 245 249 249 252 241 248 242
137 151 157 165 164 122 152 128 173 182 185 193 208 209 221 220 212 214 213 214 229 236 227 239 291 289 280 269 250 288 296 269 262 264 272 264 261 269 260 262 273 257 240

GFSSE_2pvu_pres_021.txt.gz
Presure
144 129 151 158 150 158 150 118 152 152 171 174 167 146 156 172 184 202 198 194 219 216 205 232 231 217 245 230 241 210 235 253 198 155 202 162 170 133 145 157 141 141 130
159 144 138 134 139 165 172 159 130 167 150 180 169 187 182 209 220 182 233 229 268 261 267 204 260 254 265 277 256 261 172 250 244 230 250 163 153 237 233 152 234 173 147
132 133 156 150 167 145 169 143 154 184 169 161 190 192 219 253 254 270 269 265 238 268 256 261 258 262 263 258 269 265 262 255 251 244 252 255 231 251 170 244 207 213 126
135 160 157 146 156 164 170 179 172 158 194 217 217 260 275 260 258 261 262 256 252 256 256 252 258 258 251 255 258 258 257 286 255 277 272 269 254 242 226 240 231 243 229
158 150 170 157 154 161 178 167 180 252 278 280 275 292 282 263 269 260 251 247 243 236 231 232 235 227 227 220 231 228 232 235 230 216 215 249 238 256 228 237 236 246 224
159 157 156 165 144 184 207 177 267 313 295 253 277 279 223 269 265 263 270 230 229 235 283 259 229 225 229 230 259 218 226 250 252 242 227 220 208 251 233 235 232 223 236
148 154 183 177 193 282 249 285 304 297 294 269 279 291 281 278 266 274 269 265 261 262 261 260 267 260 259 262 247 262 239 218 230 230 236 230 236 219 211 235 210 229 218
172 179 193 219 304 252 342 309 281 279 277 312 299 257 252 244 244 254 262 253 249 247 246 243 248 255 253 253 258 259 261 247 232 226 228 231 231 234 217 231 224 230 211
177 167 258 229 267 287 265 282 280 272 270 261 264 261 260 211 256 260 257 259 254 245 246 243 241 241 243 241 249 249 243 255 252 252 249 246 241 218 230 215 217 212 215
191 188 185 260 253 249 263 250 242 241 252 237 189 233 219 236 206 218 216 209 207 244 253 261 248 230 233 232 232 238 246 243 245 236 251 216 230 226 218 220 214 220 211
265 249 261 259 240 243 225 228 222 221 224 224 221 219 235 221 229 226 228 226 219 221 215 210 246 259 249 233 230 235 234 235 225 243 229 240 214 221 216 219 209 203 216
247 248 239 233 227 218 229 222 213 203 212 212 208 207 208 208 204 206 202 201 201 210 167 212 219 216 217 248 254 236 229 228 232 224 235 216 226 213 213 222 201 201 195
240 235 215 218 225 225 210 206 204 198 200 197 199 197 194 197 188 196 196 202 197 196 204 207 188 199 212 219 235 234 247 226 230 222 232 235 211 208 206 203 214 206 200
231 226 211 206 206 204 199 199 193 186 189 194 200 196 192 189 190 195 195 201 207 207 205 199 196 197 204 202 212 208 228 235 230 227 227 226 216 218 218 199 203 210 198
212 206 192 201 195 192 198 192 193 195 193 193 194 189 186 182 169 183 191 197 196 188 191 186 190 187 188 181 195 205 208 206 221 236 238 220 229 218 213 218 203 202 215
194 187 188 182 173 181 186 181 182 182 187 185 183 176 187 181 184 184 175 184 183 185 189 190 190 188 186 185 190 193 195 194 200 205 214 229 226 223 214 207 206 205 172
190 198 183 184 186 183 181 180 178 183 183 184 185 181 182 184 176 180 178 182 180 171 181 187 187 180 183 183 187 185 184 190 195 194 198 205 210 230 244 227 206 200 198
188 176 172 174 173 176 168 169 168 175 173 182 181 182 184 175 186 187 182 181 185 186 183 188 184 186 182 183 181 179 181 184 193 194 195 196 200 201 210 229 239 230 202
187 179 174 169 175 172 167 184 174 166 149 145 151 181 164 182 182 179 180 165 177 190 185 193 193 192 200 197 182 170 188 188 181 180 190 195 194 189 193 200 211 230 238
202 190 127 172 134 170 166 156 143 142 143 140 174 140 172 171 180 164 184 191 184 166 183 189 194 193 197 197 200 201 185 193 195 190 182 180 186 196 195 193 194 208 223
194 206 195 179 126 129 146 129 151 157 161 143 124 174 158 155 137 132 153 191 193 202 175 175 163 208 210 212 229 222 201 205 196 201 194 195 189 188 195 201 193 194 196
174 206 154 138 145 150 121 155 156 149 121 139 175 183 109 153 188 192 186 203 167 196 177 194 217 212 202 172 218 216 231 225 223 227 224 220 207 207 195 194 196 198 194
120 178 174 165 173 192 190 171 154 168 162 176 153 186 191 165 145 192 150 207 213 216 214 208 211 217 219 178 188 184 227 248 238 233 230 230 233 230 211 209 195 198 200
199 146 182 182 131 180 143 147 176 156 124 117 187 189 189 141 204 212 218 217 191 213 216 225 216 239 227 227 242 252 260 277 262 233 240 238 243 233 235 230 214 205 202
170 175 164 182 182 180 162 172 190 188 119 185 154 197 200 195 213 213 194 206 206 215 229 219 260 246 258 261 252 272 306 301 289 289 287 284 278 278 259 265 229 227 219
172 125 170 175 178 182 176 184 170 168 179 164 189 203 206 212 205 201 219 221 229 186 265 259 257 271 264 287 310 308 303 299 296 282 275 274 295 268 293 260 297 300 278

GFSSE_2pvu_pres_024.txt.gz
Presure
109 115 130 131 126 134 124 160 142 150 156 139 161 160 180 159 135 189 182 203 234 238 232 218 230 256 227 251 238 195 255 244 221 236 235 206 182 242 185 209 136 143 158
113 133 165 126 154 146 127 129 160 167 143 153 172 164 177 185 173 229 205 276 273 270 246 256 243 259 245 252 245 248 262 239 246 250 252 196 250 218 242 225 152 178 135
121 132 160 150 134 155 167 153 161 164 170 157 173 174 194 267 212 240 300 229 274 285 286 256 284 247 273 240 239 251 255 255 254 243 234 245 236 257 243 238 174 211 248
125 133 137 158 159 158 152 152 157 159 173 178 178 284 275 219 258 284 282 275 229 268 265 264 262 255 249 250 258 258 236 256 263 254 261 258 253 241 249 231 237 235 216
155 150 147 157 152 165 150 146 167 183 182 183 255 185 236 291 264 242 268 266 253 246 256 249 235 251 238 234 233 233 237 232 237 242 242 246 264 278 250 249 249 230 238
116 159 150 135 151 173 175 176 186 222 203 186 318 207 292 265 260 258 291 264 282 278 269 256 255 210 207 275 282 267 231 225 223 223 227 226 228 230 229 267 244 234 236
124 155 153 157 180 184 192 199 234 346 283 320 322 298 297 291 282 269 270 268 268 268 260 260 257 254 250 256 259 261 269 267 268 261 235 223 240 238 222 204 238 234 224
162 173 167 187 203 178 222 278 275 260 261 262 254 257 239 244 261 237 221 231 235 240 267 265 263 253 249 242 238 246 254 256 260 257 253 219 214 233 236 222 199 249 228
164 167 172 187 181 242 252 247 212 236 227 230 223 232 239 228 219 239 226 231 220 230 226 232 236 261 259 245 236 242 239 248 252 245 246 262 229 223 220 235 229 210 206
181 173 209 208 244 230 249 234 229 229 219 210 221 220 208 211 209 211 197 205 206 197 204 223 218 226 233 249 252 240 233 239 240 246 240 250 254 238 240 211 230 220 206
185 253 249 248 247 242 235 230 226 222 219 216 211 209 205 206 204 204 201 205 203 215 209 208 214 214 212 215 230 242 250 229 235 232 235 241 242 238 246 241 211 229 210
252 239 204 238 228 226 219 216 209 206 205 198 199 196 197 198 195 192 194 195 199 190 199 196 196 204 208 204 209 213 223 241 244 228 232 231 239 228 245 214 220 215 210
170 236 223 224 218 207 209 206 208 204 207 199 197 194 194 193 195 191 193 184 186 186 192 193 186 177 192 195 195 182 211 209 212 241 229 230 231 232 227 241 226 216 210
229 221 215 210 202 196 191 190 187 194 185 198 197 196 194 186 181 186 184 185 189 180 183 186 185 179 191 188 187 190 197 187 206 210 218 241 230 220 232 225 209 215 220
214 202 197 194 195 190 191 196 194 185 183 179 183 186 186 180 182 187 183 185 186 179 178 173 186 187 185 191 184 191 184 184 194 191 193 208 235 230 225 226 226 219 214
203 192 195 195 193 187 194 185 186 183 174 180 173 167 156 174 181 179 184 183 184 180 177 182 178 176 187 183 182 183 179 189 192 178 193 193 199 209 232 219 222 233 208
202 195 201 190 181 180 186 182 180 178 171 167 179 182 163 165 164 175 177 175 173 180 173 182 189 191 166 176 182 187 176 188 184 184 184 183 190 195 200 219 237 216 219
213 188 195 191 188 190 179 183 162 141 169 160 160 151 147 135 176 136 182 177 187 132 167 189 186 199 194 191 197 193 197 189 182 186 186 192 184 187 194 192 205 223 231
193 201 209 211 201 188 178 172 171 128 138 139 124 168 124 150 130 179 136 183 186 187 181 184 159 193 164 205 201 192 204 210 204 198 184 205 188 188 189 188 195 201 211
205 185 201 187 181 180 198 173 172 152 152 140 190 161 134 177 164 132 161 186 184 192 196 203 201 200 206 199 212 182 217 216 212 209 212 214 201 192 196 185 195 195 193
181 137 128 135 188 165 180 173 172 158 173 181 188 116 121 191 194 124 121 202 186 196 203 199 204 212 206 205 197 206 173 162 164 171 214 225 222 225 204 199 199 185 196
209 209 119 194 179 194 192 191 187 173 183 184 191 139 133 178 140 203 198 166 183 101 210 209 206 203 194 201 218 216 228 218 228 223 216 218 220 221 220 228 211 210 194
192 184 118 144 178 169 178 185 187 192 188 180 167 186 195 198 187 152 181 179 204 164 208 191 158 208 213 205 209 231 235 230 245 272 216 253 163 153 183 226 236 231 217
184 180 129 146 157 175 171 181 184 189 193 196 176 189 153 150 205 204 203 202 199 195 222 216 224 225 244 225 235 226 224 240 257 275 277 257 271 270 268 277 234 239 237
178 180 176 177 171 164 182 186 195 200 197 195 192 194 200 203 201 204 204 195 216 232 221 220 217 255 271 262 256 258 193 252 135 270 281 255 272 278 274 325 329 278 264
175 172 160 174 174 178 174 184 175 195 199 201 204 207 198 200 205 224 209 143 220 233 253 247 249 264 272 267 271 269 262 267 282 280 286 285 202 297 314 315 317 315 276

GFSSE_2pvu_pres_027.txt.gz
Presure
118 124 111 108 118 123 127 119 118 124 155 138 127 142 147 162 167 165 154 176 178 202 208 220 188 240 242 191 184 265 251 260 259 258 251 249 236 159 160 180 209 166 154
109 111 105 141 138 123 112 124 152 132 139 149 178 154 166 169 187 180 184 178 207 203 222 218 211 216 220 266 252 252 242 240 248 256 236 240 247 251 238 206 174 162 156
128 122 120 126 122 126 114 150 152 162 141 156 165 161 167 197 199 194 237 262 221 228 277 280 295 246 245 265 275 256 268 259 244 250 251 237 245 255 250 231 231 231 232
125 117 122 123 144 134 157 165 157 140 139 170 170 192 177 208 240 228 285 237 269 249 225 247 257 262 256 257 256 250 255 259 259 253 239 231 249 253 233 182 241 239 227
140 122 151 112 154 160 138 131 139 168 173 162 181 240 266 315 300 249 289 275 302 299 295 273 265 257 275 243 245 221 280 254 239 247 242 253 262 253 256 248 238 240 238
168 156 166 130 134 157 130 175 176 164 194 198 212 283 325 321 317 306 300 304 305 300 290 285 281 276 271 266 263 256 269 275 286 277 268 228 251 253 240 241 252 249 242
156 138 142 145 133 160 176 183 163 202 271 248 256 266 258 255 236 259 247 254 247 255 254 251 262 265 272 277 266 258 257 257 262 259 276 247 216 221 234 226 240 263 242
142 157 134 154 140 180 168 180 199 261 253 252 243 235 234 228 229 230 229 222 220 217 215 222 224 225 229 242 261 266 258 243 248 253 256 270 264 230 219 217 217 224 228
125 157 169 169 181 181 183 194 252 181 241 229 232 227 228 224 225 203 213 215 216 206 207 207 222 212 226 224 229 222 241 262 245 242 247 249 257 266 244 222 222 237 214
155 156 169 206 172 202 228 245 203 239 232 226 225 218 216 215 211 205 204 200 203 204 204 207 199 202 199 195 203 211 219 222 248 252 237 243 248 248 251 246 217 219 218
166 163 176 170 201 203 222 238 235 231 219 224 217 213 210 206 203 196 204 201 199 189 194 188 194 196 195 194 198 199 203 206 216 218 244 240 238 243 241 248 227 217 226
158 175 198 210 238 203 233 225 217 214 205 194 202 196 206 206 205 198 190 196 196 191 192 183 186 190 189 184 162 196 192 192 200 205 210 213 248 231 236 248 253 236 205
190 238 188 238 181 212 215 207 195 194 186 195 198 194 189 191 189 185 186 190 188 191 185 186 176 189 187 190 189 192 172 198 194 190 195 204 212 229 240 230 235 235 244
236 236 232 209 206 200 203 193 203 189 193 192 188 179 175 178 173 170 181 181 179 181 181 182 190 183 185 186 183 140 133 193 174 192 194 194 194 202 215 239 227 222 251
230 213 207 213 193 197 194 198 201 189 181 192 190 182 177 169 171 174 159 160 167 172 188 170 180 191 188 187 185 192 185 178 183 189 179 196 188 193 201 212 219 233 233
216 208 211 200 202 195 198 194 192 202 196 193 183 181 173 173 168 157 147 151 158 177 167 178 178 189 192 191 188 184 186 187 190 198 197 190 192 194 184 198 203 212 229
210 212 224 218 213 213 217 207 207 192 188 188 182 176 135 147 161 140 169 193 152 153 129 184 166 188 192 189 195 198 200 203 197 212 204 203 195 194 196 197 193 196 206
216 215 203 210 200 194 196 196 112 186 203 199 195 190 165 135 130 174 191 183 137 178 190 162 193 192 202 204 195 206 204 177 211 212 217 213 188 203 191 193 201 190 196
211 207 202 194 178 186 186 200 119 190 163 153 173 175 183 182 179 169 191 187 162 160 179 146 154 202 187 205 134 192 202 209 209 209 202 214 213 214 222 195 199 196 188
201 202 204 203 207 208 202 197 140 187 189 187 188 176 164 134 182 186 163 136 127 159 161 138 200 202 190 200 200 201 202 204 205 206 206 207 196 214 216 222 210 198 202
204 204 205 199 194 192 184 140 158 142 175 175 180 183 185 196 181 207 206 209 122 200 201 153 196 96 102 206 201 203 205 201 194 209 206 214 208 222 215 218 218 217 200
193 188 183 188 191 186 176 140 164 182 177 175 182 184 191 202 206 205 206 205 90 146 186 206 199 195 205 155 211 148 201 219 216 234 223 222 224 236 213 179 206 224 214
180 176 166 191 180 177 175 183 183 184 190 195 200 205 164 203 201 201 205 205 202 128 207 173 211 206 213 219 104 205 216 197 221 238 265 220 260 256 261 243 237 229 238
182 187 187 184 177 182 186 179 185 184 183 189 192 202 202 200 146 194 212 183 209 199 212 219 218 220 220 217 221 235 235 239 252 257 266 264 268 274 266 263 265 261 240
190 184 181 174 183 178 183 180 171 182 189 194 194 189 192 192 129 195 131 204 209 213 216 171 149 210 217 231 139 229 240 259 265 293 280 271 280 279 280 282 240 278 270
182 177 174 178 173 177 183 178 190 196 187 192 190 180 185 198 203 204 205 215 217 217 220 210 214 228 235 249 250 258 273 302 310 305 305 301 292 235 282 283 282 264 275

GFSSE_2pvu_pres_030.txt.gz
Presure
132 158 135 107 134 117 128 125 140 132 115 153 122 133 152 132 150 147 140 165 199 155 202 184 218 240 274 267 261 239 227 217 209 266 220 246 265 257 153 153 150 160 165
139 129 106 112 115 132 151 145 109 116 148 138 123 128 171 150 129 193 195 198 244 186 274 215 241 275 212 252 218 267 219 283 270 242 244 248 268 264 256 255 252 234 218
121 121 137 126 123 124 121 115 130 132 134 121 156 151 151 142 181 184 209 271 292 295 296 294 283 290 310 261 264 277 286 199 276 246 244 242 252 215 230 248 240 226 236
124 129 116 134 133 124 117 161 133 144 135 148 163 178 166 193 200 280 272 285 296 311 279 269 287 273 281 275 267 267 266 267 262 289 258 232 231 222 236 236 249 226 223
162 132 126 126 114 138 156 125 117 158 157 163 153 171 193 214 290 286 291 252 262 233 247 251 226 290 296 292 287 283 277 264 244 247 241 248 233 276 247 207 208 239 235
113 119 119 143 122 134 125 159 142 158 136 174 171 156 271 269 266 231 229 253 250 238 250 245 248 240 239 265 290 287 275 266 266 269 280 280 309 214 235 269 280 207 230
125 129 142 122 132 139 160 161 162 140 174 162 179 263 248 225 238 239 240 235 229 229 228 227 230 227 228 221 220 217 228 274 269 251 255 264 271 287 252 225 207 260 254
119 171 122 150 146 156 160 154 165 170 170 208 219 223 245 241 232 226 224 219 213 213 215 216 216 216 217 222 227 228 226 206 183 265 249 247 253 268 277 240 218 242 215
157 145 119 121 160 162 163 128 177 173 227 244 224 233 226 205 217 216 209 210 203 205 205 207 205 205 200 205 207 208 212 216 218 217 221 255 246 251 262 266 228 213 211
144 119 125 163 162 153 166 165 174 242 232 219 233 226 223 212 205 195 213 195 208 204 203 183 189 194 191 194 199 202 202 209 206 213 215 210 224 245 247 245 263 240 218
123 156 161 144 160 161 169 206 238 241 238 220 222 212 205 208 207 208 203 202 198 194 198 197 193 193 185 191 193 193 191 194 205 204 200 206 212 215 234 243 242 261 221
165 168 128 161 174 175 201 237 229 213 216 210 198 209 201 199 192 185 183 184 179 188 191 186 190 184 184 182 196 188 192 194 191 193 197 204 202 201 208 221 241 240 258
176 159 167 176 214 215 231 216 206 210 205 207 209 197 198 185 182 185 182 174 178 167 166 181 164 174 184 180 189 183 185 185 182 183 193 197 191 206 197 209 212 231 241
159 179 181 238 225 226 207 215 215 214 202 208 200 192 187 188 186 191 182 174 170 172 169 154 150 167 177 184 176 185 190 191 193 199 172 193 194 191 202 205 210 207 218
176 202 213 223 220 216 211 203 205 206 202 203 206 202 128 199 194 188 179 184 175 163 160 176 169 165 163 159 180 182 193 191 193 188 210 178 174 201 202 195 202 200 211
201 189 226 215 225 212 214 222 221 221 212 198 213 202 127 182 195 202 197 194 140 126 125 175 186 199 181 185 149 198 176 194 180 209 209 211 200 184 195 197 200 198 200
229 227 217 227 202 224 214 208 197 200 190 183 179 186 193 192 143 146 185 185 194 187 166 180 194 193 177 166 173 199 201 206 213 142 211 211 188 209 210 202 194 196 199
219 222 226 217 213 205 205 212 208 214 213 210 206 203 192 194 186 179 177 177 185 197 198 206 193 141 165 175 138 199 204 206 208 149 210 211 211 175 182 214 209 211 197
229 221 218 215 211 212 213 210 201 198 195 194 193 126 178 185 180 179 173 180 183 202 194 174 209 210 212 212 171 208 214 214 206 181 204 204 210 217 220 200 203 206 192
215 203 203 210 213 204 192 179 189 196 182 182 185 183 182 186 172 195 197 194 201 206 203 201 201 125 130 206 183 129 198 187 145 200 210 205 203 205 211 212 205 208 197
201 211 215 193 192 183 177 189 190 182 180 183 184 180 186 185 189 201 205 126 203 203 202 195 202 109 200 120 196 205 129 202 203 103 217 209 207 223 211 204 206 219 215
208 199 195 184 195 196 195 184 184 177 181 185 188 188 189 200 210 194 189 202 199 194 132 198 199 204 211 208 204 208 216 213 209 206 203 206 214 221 211 227 204 215 218
196 193 182 190 187 188 185 179 179 185 191 186 191 198 204 204 199 192 191 195 200 189 201 170 203 206 212 211 213 224 222 221 219 215 183 207 214 222 240 240 253 242 240
192 184 189 182 185 184 179 182 188 188 182 193 201 202 192 193 133 202 198 119 126 195 189 215 217 221 196 195 231 232 223 222 205 237 216 238 252 256 253 256 266 269 310
187 185 178 182 179 179 178 184 182 186 190 198 198 191 192 179 191 134 123 163 134 127 146 219 221 233 234 232 237 243 241 250 255 260 267 255 253 257 304 321 320 313 314
180 185 181 177 183 181 182 183 184 182 182 186 195 184 130 145 187 145 199 203 218 221 219 228 231 239 234 240 250 245 257 255 262 269 288 286 291 326 316 317 313 310 315

GFSSE_2pvu_pres_033.txt.gz
Presure
107 117 124 125 146 123 148 127 120 111 152 169 122 133 117 117 136 151 130 149 132 137 181 212 235 270 286 245 267 252 262 250 264 270 241 199 222 262 228 214 152 204 217
141 117 114 112 118 132 125 116 113 115 117 119 134 162 151 129 168 129 164 150 177 179 274 311 308 302 291 271 275 258 257 258 245 253 261 258 225 248 260 205 208 195 221
113 114 115 147 129 123 133 161 115 118 161 140 126 138 145 159 144 138 180 183 325 320 227 303 295 315 290 294 262 272 256 240 251 248 244 254 261 245 239 257 252 239 236
121 111 133 169 128 130 115 129 120 182 119 118 135 171 159 155 181 170 182 236 228 260 269 274 270 256 289 269 299 296 294 289 281 283 277 267 241 234 235 256 266 259 248
124 166 124 121 112 118 133 156 147 118 125 158 170 159 174 164 171 174 256 226 253 250 234 233 250 231 244 246 255 267 290 280 271 267 277 258 240 261 232 226 225 227 259
140 116 113 116 116 130 141 148 137 122 160 165 146 160 170 167 181 259 254 246 237 239 232 233 232 233 226 228 228 231 219 229 205 269 258 265 280 238 269 227 225 218 209
125 113 146 135 131 162 156 123 128 169 174 151 166 163 176 244 252 230 236 217 222 226 215 218 225 224 222 223 216 215 202 217 212 226 260 261 256 260 279 237 213 252 229
132 122 180 166 142 125 168 143 134 160 172 183 161 177 203 243 230 223 228 217 209 198 210 198 194 199 205 214 197 207 203 214 215 211 209 223 242 258 261 247 289 211 205
117 156 126 160 127 150 127 170 163 171 137 168 177 226 235 235 224 226 204 190 213 211 212 199 204 205 192 192 195 199 207 196 211 203 207 214 218 223 240 250 268 278 269
131 159 131 119 160 152 160 172 158 164 170 184 186 240 231 214 209 197 200 202 191 195 198 203 192 199 192 199 197 196 204 199 196 200 200 200 205 216 218 221 245 249 261
146 121 135 155 131 166 143 165 168 179 180 211 230 210 214 212 212 207 197 196 194 181 181 179 167 180 173 181 186 182 190 198 199 198 194 201 194 208 205 218 222 240 243
122 159 155 155 169 165 156 173 181 185 221 189 209 213 211 210 212 205 194 139 180 183 190 177 179 187 165 167 174 164 168 185 190 191 196 197 204 200 197 201 206 216 229
144 158 160 168 170 182 175 168 183 226 227 203 224 212 210 210 206 204 194 125 200 203 191 181 181 166 173 175 157 154 151 169 176 175 196 191 196 200 200 194 206 205 217
163 163 159 188 171 162 183 170 205 217 220 206 217 215 219 212 221 223 218 212 206 200 199 196 178 192 133 152 156 186 147 196 138 172 177 200 200 194 188 204 210 200 196
164 137 177 159 165 184 181 192 215 213 217 226 207 205 202 194 193 184 189 190 191 186 189 178 187 187 166 131 131 197 167 202 199 190 176 203 198 199 208 212 200 215 195
176 143 194 187 227 209 214 230 234 221 226 207 216 215 213 211 208 205 152 194 188 191 187 179 177 180 182 185 179 183 203 206 209 209 184 198 155 176 215 217 221 200 206
230 243 143 222 229 236 228 224 221 224 231 214 198 193 194 194 195 188 183 147 182 184 181 184 173 172 197 198 215 208 204 208 211 200 186 160 153 148 212 215 215 224 214
181 196 198 236 222 212 186 208 209 223 205 188 184 183 191 184 182 185 190 184 183 184 188 186 208 206 207 207 204 207 133 151 206 204 202 212 212 210 188 208 205 216 205
233 239 232 222 221 216 196 198 202 193 189 190 195 190 187 180 181 186 182 187 192 195 205 206 197 191 199 196 197 184 186 189 197 200 199 200 198 188 209 205 207 206 210
241 220 215 204 206 208 202 193 191 189 197 197 192 187 176 183 189 186 186 194 203 210 200 195 177 198 200 199 199 186 190 196 176 162 196 181 199 169 203 145 132 205 210
215 202 211 201 217 200 200 188 183 189 191 192 185 178 183 192 182 128 192 192 204 199 199 198 197 193 194 208 193 200 206 202 205 212 126 194 204 203 113 202 210 204 206
195 209 194 208 199 200 187 187 186 184 188 183 184 190 187 189 189 192 192 203 207 209 139 193 194 196 158 208 192 216 220 216 219 215 215 220 220 221 220 225 222 215 205
195 202 205 204 191 193 188 183 186 191 188 182 183 191 190 190 195 206 199 188 195 109 194 188 145 156 167 214 130 138 141 232 214 217 219 218 226 227 222 221 225 219 212
199 198 204 184 191 186 188 190 190 188 185 181 191 182 185 187 195 194 192 189 139 176 198 212 225 226 230 220 217 225 227 230 228 228 223 217 225 238 244 247 247 249 245
198 187 193 192 184 183 187 184 187 188 193 189 184 186 195 195 196 171 200 110 204 209 220 218 223 221 214 237 222 235 242 261 267 272 276 252 255 247 259 262 350 343 344
188 189 189 186 191 189 180 186 174 187 184 176 196 201 192 195 198 197 201 203 218 217 222 228 234 235 240 255 260 273 271 272 267 324 362 353 349 297 289 332 301 345 319

GFSSE_2pvu_pres_036.txt.gz
Presure
117 108 119 118 130 109 131 144 140 119 139 118 119 146 151 135 124 124 132 145 172 176 152 152 262 325 333 325 318 285 291 269 295 260 259 263 237 226 250 277 263 264 204
127 132 97 143 114 127 129 119 114 142 121 126 134 152 121 155 134 158 178 132 192 173 190 331 332 321 326 323 310 293 271 271 258 267 266 257 279 254 246 265 226 216 220
146 139 114 113 119 129 121 141 145 133 127 136 142 139 117 177 162 150 134 172 177 190 264 277 279 272 265 300 309 314 309 288 251 246 244 260 241 253 273 229 225 233 219
138 130 128 114 127 130 142 117 145 141 138 167 153 117 151 168 175 171 169 182 177 207 241 247 256 229 251 251 251 256 287 310 303 286 250 236 228 230 240 241 213 212 223
143 121 113 128 122 138 121 138 118 152 141 151 144 139 146 164 171 165 172 178 194 249 236 222 221 222 228 232 225 224 228 230 266 294 293 291 295 277 249 254 260 243 203
119 121 127 141 124 119 123 115 146 127 123 153 160 171 177 170 180 169 177 208 232 235 228 204 196 213 211 211 225 224 228 226 225 221 246 280 275 278 230 242 231 238 230
119 156 121 129 133 151 131 134 130 125 150 151 172 142 170 167 180 168 172 195 216 234 214 215 204 209 203 194 189 186 215 208 216 223 218 226 250 258 255 263 236 268 225
124 121 149 128 173 156 139 141 125 149 168 146 164 165 183 177 164 187 182 220 205 202 216 193 209 210 185 202 206 204 190 194 201 205 198 216 223 228 242 241 256 250 235
119 123 116 165 172 131 158 125 152 159 164 166 163 185 175 166 173 182 219 205 205 217 195 193 193 128 179 176 185 175 193 192 195 191 191 186 207 201 225 230 248 247 270
144 143 141 129 125 130 132 142 158 157 180 177 170 160 183 201 229 204 183 205 205 203 203 193 188 133 182 187 180 177 172 175 178 179 190 202 193 191 205 197 228 241 252
171 129 127 164 164 127 166 169 162 167 174 168 184 183 173 224 212 209 215 213 205 200 200 193 189 195 198 193 185 177 181 169 159 168 155 167 195 197 191 198 205 214 228
172 175 173 141 141 170 164 170 170 166 179 174 207 225 202 216 214 222 226 214 217 210 222 215 206 194 186 192 189 177 181 172 174 166 142 159 201 178 203 197 188 202 209
171 144 124 125 172 172 163 165 170 170 194 212 223 234 225 214 219 205 213 209 204 193 199 186 183 187 182 171 189 189 187 134 193 163 160 185 148 205 179 189 205 200 193
125 129 170 169 164 161 146 171 166 178 230 213 206 235 223 215 203 217 208 213 206 212 213 205 196 188 192 189 185 184 180 182 139 139 201 201 157 210 180 200 177 192 198
176 186 185 156 168 167 172 173 211 218 215 228 225 213 213 215 216 194 199 176 185 185 184 184 184 182 184 186 182 192 191 206 181 182 143 213 213 211 211 212 209 202 210
194 150 169 239 170 167 218 190 211 121 216 210 194 212 218 196 191 182 188 187 187 186 177 183 184 180 182 191 182 188 198 204 197 206 203 203 208 206 197 168 203 216 213
167 158 166 196 187 230 210 211 224 228 215 212 211 207 192 190 185 189 193 190 185 174 183 190 189 189 191 194 207 208 204 194 187 192 193 194 194 193 200 197 205 193 216
251 214 199 220 245 178 210 220 215 206 216 217 205 195 187 190 192 194 191 186 176 185 189 181 190 189 190 205 202 196 194 198 191 191 194 195 194 196 138 192 159 203 143
178 200 220 238 236 228 214 212 220 203 203 208 199 193 186 186 184 190 181 184 187 187 190 184 195 204 196 190 158 184 181 185 192 193 192 174 190 185 195 188 196 197 189
225 213 240 221 222 207 208 196 204 198 201 195 191 184 188 188 190 182 184 178 185 116 164 184 196 191 189 186 194 194 192 184 181 180 186 207 203 192 191 179 132 204 179
224 239 225 220 196 211 191 201 198 205 196 189 193 188 185 190 192 184 185 187 190 190 195 195 184 196 195 197 196 195 193 190 193 196 208 216 211 212 206 205 198 210 209
231 224 219 195 209 201 197 196 204 185 193 189 187 191 188 189 177 188 197 195 195 215 196 194 205 200 147 124 193 201 214 210 141 169 188 117 195 219 215 216 217 220 214
224 210 202 206 199 201 196 187 188 192 191 194 194 191 180 191 197 194 199 203 201 193 202 199 189 194 200 199 222 220 219 219 219 214 216 218 217 180 158 223 226 224 223
228 210 197 191 194 195 187 190 181 196 198 184 188 186 194 193 195 202 186 196 202 212 206 203 210 219 227 224 218 235 226 236 241 245 236 224 229 219 244 245 231 243 240
196 204 204 203 194 191 188 193 202 184 186 185 190 187 195 198 194 194 201 204 200 205 215 223 226 228 230 221 237 234 232 235 248 252 260 300 298 285 290 280 317 280 269
208 198 195 193 187 185 195 193 187 182 179 190 190 107 109 125 193 201 194 204 213 215 222 220 233 232 229 239 248 245 276 295 287 296 298 262 361 355 361 350 351 274 340

GFSSE_2pvu_pres_039.txt.gz
Presure
129 122 116 113 144 108 127 111 127 132 114 116 128 139 139 138 134 118 130 140 154 125 175 138 129 168 191 187 334 335 322 320 302 288 272 267 287 271 262 255 248 255 243
120 131 114 108 115 117 111 111 142 146 111 122 140 118 147 137 138 122 149 128 174 192 131 188 194 192 181 271 283 271 268 317 300 292 268 269 257 254 239 239 233 237 226
132 112 141 125 134 130 133 129 117 119 119 117 123 144 119 151 121 132 153 151 142 146 174 180 195 242 245 234 237 226 252 237 264 297 275 268 250 253 260 259 271 244 231
120 147 129 142 137 127 115 130 131 117 142 134 158 124 116 119 144 164 182 176 181 174 187 188 242 230 225 228 218 222 222 222 227 232 277 297 261 245 246 241 245 252 229
137 120 128 115 125 113 138 124 117 140 122 160 126 131 126 129 153 168 180 160 195 175 185 225 219 199 220 211 209 205 215 208 209 233 229 279 292 265 249 236 237 220 247
123 132 125 123 121 138 164 122 117 140 141 143 122 129 126 188 166 159 174 127 172 183 233 216 217 220 220 201 204 212 196 209 195 196 201 217 226 279 277 275 236 216 251
132 114 107 130 132 124 121 120 189 157 144 180 126 152 190 173 177 175 199 181 181 219 219 216 212 208 203 196 198 188 185 128 187 201 199 201 202 202 239 249 275 275 248
105 169 194 175 114 143 180 143 147 135 176 165 126 186 174 185 190 196 173 172 236 215 218 209 211 210 202 201 199 194 183 186 177 180 187 181 199 192 190 217 236 257 240
168 183 132 163 174 170 134 172 157 178 128 143 183 171 179 164 172 173 188 220 225 210 213 206 205 205 204 202 200 191 184 183 187 175 180 170 168 161 178 194 200 220 235
146 171 178 139 174 183 128 176 169 127 174 181 197 187 153 182 166 206 241 217 223 225 206 215 214 214 214 212 208 207 196 205 196 195 174 176 164 164 162 165 175 195 195
126 128 184 181 174 175 175 122 135 183 193 182 182 189 173 168 189 236 216 227 223 213 215 211 206 205 196 199 193 189 200 196 175 198 193 189 172 165 157 152 163 172 181
158 181 184 190 173 147 128 174 186 199 175 161 170 172 210 186 226 224 230 224 217 217 216 215 217 215 220 214 208 200 198 136 193 191 192 193 195 197 186 152 160 188 172
144 119 171 175 124 166 178 198 176 177 166 197 227 194 185 205 183 229 221 217 217 196 194 183 194 194 190 183 181 186 187 186 185 185 182 189 195 208 188 195 153 219 203
186 144 174 141 179 176 171 174 186 187 223 193 215 199 205 230 211 212 218 202 192 188 191 189 195 191 180 177 184 187 187 184 186 192 193 187 209 142 180 209 216 218 150
174 176 170 171 200 181 193 194 199 218 197 189 226 174 240 219 222 207 210 195 194 193 190 192 190 183 177 184 185 179 182 188 189 193 206 208 206 209 193 197 201 153 210
175 173 184 187 164 195 227 235 235 232 198 221 215 202 212 213 195 207 202 195 192 190 188 184 179 174 180 182 182 184 183 183 184 197 199 200 192 191 193 195 197 202 194
181 177 175 185 169 188 227 218 203 201 236 226 210 213 220 204 211 200 193 192 178 189 181 183 175 184 173 182 180 180 180 191 195 193 190 192 196 196 186 189 187 192 202
157 184 214 179 236 221 206 237 221 241 228 222 211 196 197 196 203 190 184 191 193 186 188 191 183 184 190 191 190 188 196 202 189 197 190 192 195 180 195 194 193 194 191
253 252 243 246 216 220 212 223 217 217 236 203 207 200 198 203 200 185 190 192 194 190 193 180 185 190 193 194 195 196 188 193 193 197 196 191 186 192 195 194 188 187 190
232 223 214 208 229 225 213 205 210 228 196 203 196 194 193 185 184 191 194 192 187 184 184 192 195 192 192 189 183 192 194 191 199 187 200 189 186 190 191 188 197 204 196
222 215 215 209 208 205 221 213 213 198 202 185 192 190 184 185 185 195 198 184 185 189 188 188 191 188 186 186 188 187 190 194 195 193 126 185 189 192 191 127 194 202 204
220 216 214 213 219 214 227 228 195 188 183 189 186 186 189 188 200 198 184 187 189 196 179 191 194 196 182 189 196 195 203 206 201 205 207 210 220 219 213 208 207 214 146
220 211 211 212 211 210 185 212 195 192 193 192 192 193 199 204 190 188 186 195 190 185 194 200 200 208 208 202 212 218 215 224 225 218 221 229 226 232 227 224 220 217 217
221 225 221 199 193 195 195 199 206 195 194 194 192 194 183 189 134 190 195 195 198 198 209 210 209 213 206 216 219 229 233 239 243 238 233 225 236 236 241 230 237 247 241
225 208 196 194 192 195 185 197 201 190 196 203 197 193 195 195 196 191 198 194 212 206 195 209 217 224 224 224 227 235 218 230 226 253 243 235 229 243 233 246 255 259 278
217 214 212 198 195 197 191 192 192 194 201 186 194 191 191 183 183 186 197 199 198 206 210 207 220 221 226 221 247 242 241 274 279 250 250 284 292 325 333 344 328 349 358

GFSSE_2pvu_pres_042.txt.gz
Presure
127 119 146 159 138 122 118 111 115 145 110 130 126 138 113 111 144 154 145 126 133 133 128 136 159 163 155 154 202 245 227 257 211 288 267 294 301 287 269 283 266 277 268
133 117 143 151 122 117 112 123 161 131 140 114 133 110 110 128 121 158 123 123 120 125 143 135 195 188 197 187 143 242 245 241 244 248 226 259 303 269 284 272 267 270 266
167 135 142 135 128 132 136 144 142 130 105 132 139 114 117 161 146 151 122 131 131 187 193 195 188 215 193 238 243 227 234 225 234 226 231 227 226 284 273 273 264 232 242
151 123 112 117 141 139 127 142 126 109 134 147 110 117 146 167 156 136 153 146 168 156 199 188 189 131 234 233 229 216 219 215 221 216 223 215 215 204 228 268 232 246 239
111 127 169 130 126 161 136 104 168 147 136 114 128 181 166 140 153 150 125 175 203 186 177 193 182 243 229 230 215 217 207 207 208 204 205 202 211 215 216 205 249 256 256
120 155 119 135 177 105 151 154 182 131 118 182 186 182 133 153 179 127 200 182 193 185 171 209 239 232 229 221 224 219 205 208 197 197 195 198 186 195 194 212 216 257 278
128 118 172 168 181 172 167 172 188 179 177 169 166 149 186 133 124 203 180 187 153 194 127 194 220 228 226 224 223 218 213 208 202 197 188 182 178 157 189 186 191 206 247
152 113 159 147 125 141 149 172 145 185 188 165 168 153 125 144 186 182 175 177 214 216 234 218 233 222 228 221 223 221 218 218 209 206 204 205 185 183 183 210 179 185 192
173 104 120 131 111 108 180 173 160 188 144 175 148 126 195 178 184 202 203 197 194 242 220 243 235 227 220 225 218 209 205 206 207 199 206 207 202 156 166 181 169 180 188
138 121 129 181 161 122 130 137 161 180 171 119 165 182 165 195 189 195 191 243 233 213 232 236 224 229 226 205 229 222 230 220 216 211 207 203 200 199 200 148 175 161 167
171 160 168 177 155 173 180 179 171 170 142 192 171 193 186 179 192 205 201 207 216 237 214 229 213 196 201 196 203 202 198 186 183 186 191 194 175 194 197 197 193 191 173
166 148 142 164 185 180 179 189 178 177 175 171 194 191 178 195 236 205 190 226 230 228 203 213 198 196 198 197 193 201 190 178 184 188 192 191 190 187 195 194 192 206 208
184 175 174 184 173 182 185 167 175 187 195 179 192 183 178 201 205 215 223 209 227 200 203 207 196 200 195 192 197 189 176 182 188 185 181 177 185 191 191 200 220 178 222
187 191 183 183 187 204 177 177 177 176 186 194 182 192 230 205 222 234 226 219 218 196 214 205 194 195 190 183 185 184 179 184 175 184 187 189 184 189 198 202 201 199 216
193 182 166 182 184 173 173 194 177 154 191 166 204 211 213 223 224 230 227 214 199 214 209 202 187 190 191 190 188 190 189 183 185 192 190 191 187 190 196 202 193 198 207
208 183 173 180 190 191 163 133 180 194 202 230 233 222 249 237 239 216 230 199 192 204 201 191 186 184 185 184 182 181 178 183 187 188 187 194 192 189 201 196 188 191 196
193 193 208 179 207 191 190 195 194 219 234 219 226 246 210 221 211 197 194 197 191 191 184 182 183 189 188 181 181 174 184 184 189 188 192 192 183 197 202 198 200 200 197
215 218 209 204 217 213 197 229 224 217 230 226 241 223 234 218 204 190 189 191 192 188 182 185 187 194 182 183 181 183 187 183 187 185 185 185 190 192 193 195 198 203 204
211 207 205 222 236 216 220 254 226 215 215 216 216 208 196 195 193 191 192 192 187 191 191 195 204 186 181 183 189 187 180 186 182 192 189 182 181 184 184 196 195 196 198
204 231 224 221 230 207 222 202 203 214 211 211 210 212 217 221 195 192 192 192 192 189 198 202 188 189 192 190 182 191 191 190 192 191 193 181 186 192 193 193 167 134 196
229 220 223 239 237 249 213 217 203 202 205 203 199 197 196 189 196 196 199 186 189 184 183 192 190 185 178 186 185 193 196 194 189 189 194 197 199 197 203 201 203 199 201
221 224 219 220 225 223 219 213 217 212 204 196 195 193 191 195 187 186 191 190 195 192 189 176 159 177 184 193 196 193 191 195 194 195 200 201 214 216 212 208 209 213 207
216 212 217 226 230 229 214 209 213 224 202 190 188 184 188 187 187 190 191 190 175 182 175 175 187 185 194 193 194 197 199 204 212 210 213 220 215 209 221 222 224 227 228
247 250 248 245 244 243 231 215 206 207 203 195 187 190 182 188 195 203 186 164 181 179 192 193 193 201 199 211 214 225 227 233 238 236 220 229 230 228 240 244 243 246 250
210 204 197 193 193 191 187 187 193 192 188 187 191 191 201 215 192 192 201 181 185 192 193 200 196 205 216 216 228 231 229 220 228 233 235 252 237 242 243 244 267 260 258
193 197 200 210 203 203 200 193 194 194 196 205 214 219 196 182 195 202 189 192 192 195 196 199 212 211 224 233 232 239 228 234 254 267 274 275 281 284 297 339 376 321 324

GFSSE_2pvu_pres_045.txt.gz
Presure
140 94 97 118 122 162 145 159 124 107 115 127 105 135 121 144 103 140 133 110 144 133 136 144 140 121 167 159 146 167 200 253 260 208 233 244 215 253 279 308 232 290 296
169 167 109 105 145 131 130 124 108 122 148 128 125 129 154 113 147 140 147 139 112 152 146 157 149 130 162 163 197 265 226 161 243 243 241 235 230 232 231 255 264 286 272
163 107 114 144 111 126 123 114 123 161 134 129 156 156 166 146 124 122 110 147 137 135 137 175 132 139 186 226 178 209 224 243 232 231 223 225 222 224 214 214 231 278 246
142 149 115 113 164 121 124 154 155 134 138 173 152 136 134 181 197 194 171 193 183 156 124 177 197 204 194 204 195 240 231 184 228 218 215 217 214 208 209 212 207 233 235
129 120 113 157 171 163 126 148 127 179 185 102 180 167 186 130 162 198 188 186 153 127 191 192 137 136 251 232 230 234 234 232 222 221 210 210 209 209 202 193 198 208 211
108 116 171 179 174 174 126 135 150 181 189 163 198 174 140 188 172 190 194 197 126 185 195 195 140 190 244 235 236 227 239 228 236 223 218 214 207 205 200 195 185 200 198
110 105 121 135 135 124 97 176 174 144 137 154 159 186 124 171 192 180 153 200 185 201 182 182 192 247 249 249 221 237 229 234 226 224 212 227 219 217 217 216 198 206 182
131 114 140 136 120 165 180 152 180 128 159 161 182 124 148 190 166 124 193 184 190 161 185 209 232 232 206 210 230 232 210 218 229 221 225 208 202 196 209 208 209 207 189
113 141 179 162 169 123 167 183 170 146 198 179 196 184 171 192 130 186 184 197 188 196 200 233 239 246 230 231 220 201 206 208 208 207 207 200 186 201 203 205 195 182 191
184 159 160 172 179 127 179 161 145 189 176 152 184 180 186 154 198 188 191 194 198 202 223 245 244 236 214 222 212 208 201 202 196 202 191 181 189 186 196 196 192 133 200
156 129 144 148 120 168 174 187 175 172 180 191 180 190 188 184 186 194 204 192 196 229 228 241 236 221 202 208 206 204 201 191 198 194 187 184 192 192 192 188 189 193 177
120 163 116 147 182 163 181 175 182 169 195 186 152 173 175 196 206 202 199 203 229 246 240 222 242 212 196 212 202 194 195 198 187 188 185 182 189 184 185 183 183 190 196
108 118 125 136 155 178 187 174 180 198 135 171 189 199 196 190 228 198 199 228 245 237 242 234 206 204 205 214 203 198 191 188 189 189 193 192 190 187 188 195 186 184 189
158 181 162 161 166 174 168 170 192 177 189 173 181 187 193 196 211 239 225 237 213 223 245 205 197 195 193 197 197 189 195 199 191 185 187 173 183 184 188 194 198 193 184
170 178 173 172 172 184 196 195 206 194 194 184 183 212 212 237 212 225 237 225 225 220 208 205 194 194 193 195 193 191 186 191 184 184 185 178 185 189 195 193 191 197 197
188 189 182 207 202 204 197 192 204 187 192 215 206 225 248 217 236 229 229 225 212 202 197 194 194 198 196 195 184 186 192 192 196 181 180 188 194 190 186 192 191 192 184
196 198 199 208 212 212 201 198 193 196 233 224 240 220 272 231 221 229 224 220 222 228 201 195 198 199 194 184 189 185 190 191 175 186 190 186 184 174 185 182 188 189 187
213 208 215 222 213 198 202 201 197 229 219 246 228 215 218 214 207 216 214 215 211 199 209 203 199 188 185 187 184 184 186 191 191 183 182 185 184 188 181 190 195 192 194
208 200 198 202 195 194 220 233 219 210 211 221 216 203 210 206 211 213 205 194 189 193 193 195 190 192 190 192 193 190 184 198 176 177 175 176 185 192 194 193 192 192 193
203 210 205 211 239 222 262 222 206 238 200 225 223 209 207 206 207 206 197 197 190 192 184 189 192 193 189 186 182 95 181 174 159 181 181 187 191 192 194 194 194 192 192
210 213 242 230 219 229 201 207 205 206 218 234 211 203 206 205 196 202 202 184 187 190 184 189 197 201 197 168 184 180 178 180 191 189 190 192 189 194 197 194 195 195 196
234 214 222 228 221 233 223 222 225 227 222 213 210 214 212 206 189 185 191 186 188 190 195 201 184 181 183 192 194 190 187 188 190 190 185 192 196 197 201 202 204 203 201
229 246 249 246 244 227 224 203 202 195 191 190 194 198 206 198 195 195 193 194 199 205 213 192 181 187 193 195 188 183 186 193 194 199 203 206 207 205 208 211 213 210 213
229 218 211 207 203 202 201 193 200 208 204 199 198 203 205 205 204 201 203 203 196 192 185 190 195 202 194 192 201 200 203 222 219 238 229 223 242 244 247 252 249 245 242
207 202 201 198 193 193 199 189 189 194 193 199 206 206 205 203 200 197 198 206 204 205 204 187 192 194 202 211 211 218 223 229 230 238 238 247 242 249 254 262 261 256 258
192 193 208 206 200 206 207 206 218 216 212 206 198 194 210 214 210 211 206 200 183 188 194 198 203 207 198 212 212 225 262 244 270 265 319 335 296 278 292 336 261 346 295

GFSSE_2pvu_pres_048.txt.gz
Presure
115 130 106 120 112 100 100 131 149 136 123 114 170 135 112 126 155 127 135 154 144 142 111 148 139 125 111 141 194 185 192 132 244 242 251 245 247 228 241 195 239 242 308
107 118 152 124 127 150 111 158 119 159 168 119 160 109 157 138 128 178 119 121 179 181 173 201 202 108 204 197 199 185 128 260 249 232 242 242 239 231 228 232 219 218 253
149 104 98 157 147 120 110 116 115 174 170 125 162 127 176 175 172 129 179 188 130 120 181 193 128 207 203 126 199 203 187 250 249 241 202 238 231 230 226 226 221 217 211
147 131 117 125 139 123 178 160 137 122 159 155 151 119 181 171 108 103 184 184 166 141 186 196 174 127 121 177 205 198 221 134 252 225 243 234 231 228 220 218 213 208 207
161 112 144 152 162 125 128 134 110 186 150 129 184 173 166 176 182 163 207 160 161 148 176 133 124 129 193 206 200 205 251 250 229 244 233 234 237 227 222 220 214 203 186
140 170 137 129 150 112 104 125 164 134 118 124 107 134 186 180 109 163 181 171 188 183 189 191 173 184 193 205 143 234 243 231 220 244 236 236 225 211 227 231 225 221 187
178 143 169 106 153 162 151 115 130 187 125 143 164 168 167 161 189 177 161 181 211 204 198 183 186 187 163 227 253 244 226 206 240 215 215 231 226 231 214 210 199 209 220
141 160 111 145 148 123 108 173 184 143 185 192 139 125 184 178 198 187 195 179 188 180 198 193 180 170 225 230 245 234 216 222 218 209 210 211 211 217 211 202 212 207 208
186 181 175 117 171 102 173 157 170 191 179 126 144 185 185 189 201 167 203 196 186 188 178 186 188 230 229 209 242 222 217 206 211 214 215 198 204 198 192 192 189 195 196
181 181 117 171 164 161 187 126 112 184 129 178 183 173 174 173 193 172 172 190 180 192 198 182 257 249 226 246 239 221 215 212 211 201 198 196 200 196 190 184 192 196 198
160 125 180 103 118 138 103 146 138 123 141 143 148 171 174 174 183 188 187 194 179 197 194 224 233 230 236 233 218 205 203 214 214 205 190 199 189 190 187 180 184 189 191
181 180 184 159 187 179 125 122 126 160 170 173 181 170 179 183 191 174 191 209 192 186 197 237 221 226 219 223 214 209 198 197 201 202 190 189 192 190 190 194 195 192 178
178 178 175 181 179 137 177 189 160 182 175 180 177 208 181 195 203 190 193 248 235 250 230 229 219 230 230 211 205 205 192 196 195 185 185 193 192 190 187 189 181 184 187
183 181 133 179 164 184 184 176 163 183 199 188 187 182 194 201 201 212 217 205 232 241 218 224 217 224 215 210 202 192 194 196 197 197 183 177 193 195 191 184 181 175 191
189 171 184 182 179 174 192 180 183 173 180 186 208 197 214 201 205 205 218 232 234 217 216 219 217 222 222 210 197 203 196 202 203 191 193 185 191 193 184 182 181 189 193
186 185 191 194 191 180 181 184 182 187 193 212 215 198 195 203 220 231 236 246 230 225 236 232 232 208 203 199 203 208 197 192 195 194 194 189 185 185 183 189 187 184 186
234 204 210 183 211 209 193 201 203 212 198 195 198 207 223 230 241 213 209 232 225 231 224 209 225 205 209 190 189 195 194 193 194 194 197 194 189 185 199 185 182 183 187
200 201 204 202 200 202 210 204 195 199 242 218 225 232 221 214 215 220 219 214 216 213 211 207 211 212 194 193 198 198 193 193 200 201 203 183 185 188 182 183 177 179 178
201 204 208 201 198 200 207 208 200 202 212 209 211 217 211 210 213 211 213 215 216 210 190 197 211 193 195 195 197 196 196 201 203 207 188 176 173 187 183 177 175 176 189
207 196 195 201 203 226 214 209 210 199 215 198 212 209 210 212 204 198 205 187 197 213 207 197 195 195 199 199 202 207 211 211 183 185 191 194 195 195 188 190 190 190 189
201 198 201 215 241 226 227 204 208 233 225 214 223 193 197 193 189 195 198 199 195 197 200 204 205 210 211 206 201 203 201 196 194 204 197 192 203 187 187 183 184 196 194
207 221 230 223 224 253 252 240 230 223 211 203 199 195 186 192 195 186 195 199 205 205 202 202 199 195 195 194 194 198 201 201 201 196 194 192 190 193 194 194 193 191 194
217 215 247 233 222 215 211 203 202 200 200 195 191 193 190 202 209 206 203 202 197 197 207 209 208 207 206 205 203 199 194 197 193 197 198 199 199 198 200 204 208 210 208
235 225 215 209 203 201 203 193 192 199 197 194 204 204 199 198 196 197 196 194 194 201 209 207 206 203 200 197 198 200 202 203 211 212 223 236 233 234 245 247 242 243 245
211 205 199 202 199 191 195 195 199 206 206 203 199 203 196 190 194 193 195 195 203 201 195 194 193 194 196 203 211 222 224 236 244 246 239 236 241 254 248 245 277 288 277
200 198 193 201 205 203 205 203 198 189 188 205 206 215 217 223 225 206 200 194 192 193 196 196 194 203 211 216 214 215 217 237 247 268 274 281 281 265 301 402 532 536 526

GFSSE_2pvu_pres_051.txt.gz
Presure
121 121 93 138 106 140 106 97 127 99 164 116 106 113 165 130 177 117 169 162 141 177 152 169 138 107 147 129 131 182 174 196 117 131 188 235 260 171 190 205 249 241 226
115 124 94 129 109 96 121 101 138 151 129 104 145 167 121 121 131 171 178 126 155 180 158 156 124 151 127 178 121 203 192 189 196 212 122 124 264 244 146 236 151 241 176
128 119 129 94 102 140 115 148 144 156 116 122 169 117 169 172 168 177 118 185 126 164 184 104 179 125 188 138 132 146 195 167 124 163 255 262 246 214 255 243 241 240 235
91 109 130 119 132 127 168 93 146 154 167 111 111 174 120 137 153 127 140 115 160 172 129 193 150 189 163 198 181 192 196 128 192 228 274 135 222 243 243 250 239 231 222
127 119 130 133 137 137 124 121 161 135 119 127 127 151 120 167 179 121 171 135 131 125 125 173 210 122 200 193 189 190 202 190 255 247 254 230 240 244 242 236 244 228 232
106 129 112 139 136 137 146 143 173 172 173 174 124 115 120 125 182 184 188 173 159 186 200 173 181 184 187 175 204 191 211 258 140 246 239 221 231 214 217 229 223 220 236
118 117 140 120 118 142 142 157 149 184 155 98 157 124 165 162 129 193 150 119 184 195 196 166 181 192 183 193 184 209 198 242 230 242 225 232 216 212 213 216 239 218 207
123 123 113 123 125 143 159 188 171 149 140 172 115 187 137 176 129 114 166 187 197 193 185 185 185 176 195 188 202 205 226 244 243 229 210 224 214 214 207 207 203 199 207
163 115 121 116 138 124 130 192 190 118 134 187 147 127 117 118 121 119 194 141 178 138 184 175 171 185 203 201 198 217 231 243 241 226 221 221 219 208 204 197 208 200 197
140 120 127 140 192 137 189 178 102 189 181 110 110 170 120 147 124 213 188 210 142 193 184 190 185 193 185 229 243 238 221 221 219 219 210 206 215 208 196 194 198 196 193
123 124 104 144 195 192 194 185 179 176 188 185 169 136 130 147 169 175 183 186 182 178 182 186 204 205 204 234 230 227 221 238 225 210 209 211 204 216 201 193 192 189 190
143 109 145 126 201 193 178 183 155 136 126 182 181 185 192 182 173 181 184 178 184 183 182 210 199 237 239 212 213 209 224 211 218 204 200 203 199 202 203 191 197 195 190
136 131 197 193 194 193 194 190 191 191 181 181 183 183 172 178 179 173 182 188 187 183 213 201 247 230 223 211 204 200 210 213 206 201 195 196 184 200 196 184 189 194 195
192 147 195 196 201 195 195 185 185 183 182 180 183 186 186 181 171 183 181 194 213 201 233 238 227 233 242 203 223 216 208 227 215 202 190 190 195 191 194 199 184 191 194
153 194 165 195 199 196 195 187 184 181 168 179 188 184 172 187 185 187 191 202 198 236 219 240 245 233 266 230 228 223 212 200 194 207 208 200 190 200 195 190 198 192 195
205 207 204 205 175 194 162 187 185 180 175 183 183 185 189 191 190 206 201 232 226 230 238 221 198 207 210 222 223 200 213 206 205 198 189 189 189 190 188 190 187 191 191
211 211 203 201 202 198 193 172 197 205 194 192 193 194 197 210 202 221 233 226 242 221 207 213 211 210 213 217 205 210 213 207 210 196 193 191 196 181 186 196 189 191 189
216 219 216 201 201 199 200 197 194 192 189 196 201 205 226 229 224 221 226 219 224 217 203 207 204 201 217 210 206 216 216 215 216 217 215 212 211 211 209 206 207 212 191
216 212 209 202 201 195 194 200 208 197 194 200 223 235 218 217 213 232 221 206 205 200 204 201 194 194 197 200 211 205 197 200 205 205 203 200 196 203 209 214 210 208 189
175 193 200 201 197 195 191 192 193 192 212 236 225 208 232 221 222 198 200 200 199 205 195 199 201 204 203 203 202 200 199 210 215 215 214 210 215 216 214 210 204 199 193
193 199 192 190 191 190 200 216 232 217 213 240 228 219 207 203 202 203 210 195 193 198 202 201 197 193 194 197 193 194 204 207 207 203 195 195 203 204 205 203 206 213 205
202 192 196 200 202 205 217 216 213 224 219 211 207 195 201 194 197 197 201 202 201 192 196 190 189 193 194 197 198 203 205 201 199 198 200 196 197 201 207 207 205 201 201
201 220 205 226 220 236 230 219 215 208 202 198 200 193 198 201 204 201 184 191 198 198 201 212 214 211 208 201 195 194 195 198 199 203 207 209 213 219 220 217 218 217 215
209 236 232 219 221 215 211 204 201 207 196 208 210 205 202 226 229 230 231 231 229 224 215 206 198 199 194 196 199 197 202 212 208 212 223 239 240 239 233 244 231 257 254
205 220 215 210 207 201 205 209 203 202 207 218 225 223 228 227 227 228 229 219 206 195 195 192 187 197 199 193 205 205 238 252 263 265 258 258 262 257 257 257 262 265 261
210 206 201 202 208 194 203 198 211 216 225 246 269 273 263 235 218 210 205 196 193 187 196 195 196 201 198 204 250 261 263 260 260 256 248 249 298 292 314 305 299 301 312

GFSSE_2pvu_pres_057.txt.gz
Presure
119 95 132 95 119 109 119 103 114 88 120 93 127 126 127 121 102 135 141 160 124 120 123 151 118 172 119 141 126 132 147 173 145 193 173 175 182 183 173 207 131 222 205
106 119 95 105 103 107 117 142 107 120 126 96 101 124 136 130 134 117 135 105 143 121 158 110 174 134 125 125 107 101 114 197 176 111 135 207 207 212 209 143 230 272 280
123 134 140 116 101 129 96 127 147 134 121 114 127 125 116 116 127 130 144 127 149 144 167 122 123 132 116 108 120 143 214 130 120 132 214 196 203 190 204 204 235 276 267
122 119 110 116 126 109 135 106 98 125 131 113 119 107 114 124 127 130 138 142 133 130 161 158 118 152 148 130 119 111 226 150 169 180 162 196 135 201 201 223 242 257 253
133 126 104 134 125 122 119 135 128 108 125 117 132 123 112 114 134 125 133 150 153 146 182 202 212 104 159 211 203 196 192 198 152 195 184 179 196 174 212 218 255 253 244
124 119 124 103 140 132 133 134 135 122 132 148 108 107 125 131 126 146 133 144 121 180 200 196 215 236 182 186 207 127 155 193 184 194 194 199 206 199 229 259 251 241 232
128 138 128 125 112 107 115 110 118 117 119 129 119 120 130 105 110 134 150 171 180 162 211 164 154 212 198 206 210 206 191 194 178 184 192 202 206 244 240 248 232 237 230
125 139 133 137 133 108 109 109 122 156 116 124 120 124 111 113 131 195 142 179 184 195 198 199 202 183 197 204 199 190 189 187 189 199 205 195 227 228 210 218 229 239 230
108 114 128 128 131 129 120 128 125 151 128 125 117 123 130 123 145 115 170 184 193 197 203 206 192 183 200 198 185 187 200 186 193 194 193 201 240 218 228 231 227 237 233
119 135 142 152 144 126 141 131 148 126 119 103 133 122 137 131 126 116 182 194 174 197 171 128 192 196 197 191 183 184 191 193 196 206 207 247 220 226 222 226 233 231 232
126 135 191 126 131 145 133 149 138 110 129 126 121 125 128 133 182 152 186 191 212 189 199 179 196 185 190 183 183 190 195 201 193 212 222 220 260 216 233 215 234 219 228
141 132 134 145 135 134 130 128 135 123 128 141 125 124 131 200 185 188 180 196 190 196 206 192 183 185 186 190 190 190 196 195 230 259 228 218 201 229 231 194 218 218 223
116 134 138 122 127 127 127 177 190 198 128 143 135 139 131 181 183 203 190 191 188 192 186 181 188 187 183 185 196 197 196 230 214 197 223 229 236 201 241 220 230 212 216
155 137 143 118 134 129 129 121 192 127 130 117 135 214 189 189 203 132 196 195 191 192 185 183 189 185 191 195 195 192 224 223 234 228 219 210 232 225 204 222 202 213 183
135 136 187 245 234 137 126 129 122 128 138 161 198 193 188 187 182 190 191 187 180 186 185 192 202 199 194 203 220 231 224 220 214 219 224 224 212 216 201 173 218 195 195
135 162 190 130 120 127 126 121 133 128 200 198 195 193 192 196 188 196 189 192 194 199 198 187 193 205 220 235 238 244 211 214 208 208 214 210 208 201 209 203 219 219 214
133 198 131 128 128 129 132 130 198 201 207 205 206 216 199 198 203 195 199 195 193 198 195 190 218 241 212 222 208 208 208 213 213 211 198 194 202 197 203 207 203 201 206
130 135 132 133 133 133 201 234 221 165 205 209 202 201 199 198 191 187 197 193 189 196 203 236 224 223 210 206 209 209 210 207 208 210 213 216 216 220 220 219 220 221 229
151 158 134 163 208 215 219 215 214 210 200 195 191 185 199 200 195 185 195 195 217 234 225 214 205 206 207 205 207 214 230 248 248 254 249 243 240 237 225 222 214 205 205
133 135 221 219 212 216 214 207 199 198 197 197 195 192 184 186 192 203 229 227 218 207 200 204 200 236 248 264 266 257 231 250 249 229 219 215 204 197 189 204 206 205 205
215 217 229 208 205 199 204 194 198 191 184 192 192 191 194 217 238 224 216 202 200 202 210 222 227 225 231 224 218 218 227 219 209 206 202 197 196 202 208 207 206 209 213
203 201 202 198 196 197 200 203 200 196 196 193 196 213 235 222 211 201 201 208 223 219 216 216 219 224 227 218 212 208 201 200 199 197 195 201 203 202 203 211 215 207 218
205 202 199 195 187 188 188 185 190 193 200 222 231 218 205 200 207 225 222 220 207 221 221 215 219 209 209 216 228 227 217 210 207 200 198 200 202 203 205 210 221 226 224
196 186 189 194 200 202 205 206 205 227 226 219 199 197 225 223 217 213 207 206 202 199 203 205 198 236 237 234 222 211 212 217 211 202 198 196 204 206 213 214 225 230 234
195 210 209 209 207 204 209 228 228 216 197 198 204 212 214 209 204 201 196 199 194 192 190 211 215 227 233 223 224 218 211 198 195 201 203 202 206 216 219 230 230 235 241
204 205 213 226 223 223 221 213 200 193 211 213 223 207 209 207 198 196 193 188 194 198 200 215 220 250 245 234 217 206 204 205 215 220 216 228 229 246 245 279 288 309 347

GFSSE_2pvu_pres_060.txt.gz
Presure
119 89 115 117 116 124 126 105 134 103 117 119 103 104 124 97 122 119 136 133 128 123 127 130 141 155 101 140 113 160 144 108 131 105 121 99 118 226 193 222 212 124 135
103 101 112 93 139 96 99 125 102 99 111 108 103 108 143 128 116 110 103 116 110 104 118 134 140 135 143 139 143 162 113 113 195 107 200 211 203 216 110 196 127 175 172
109 110 115 120 134 133 128 109 133 117 114 122 141 120 118 104 107 137 119 120 111 120 118 110 104 134 141 116 189 158 195 108 112 210 204 203 217 202 166 197 144 204 223
140 130 132 119 131 131 104 99 106 106 106 108 120 121 107 141 107 142 128 104 128 131 132 136 134 132 156 147 156 193 178 236 201 202 209 207 198 200 156 189 191 229 214
120 133 154 127 135 96 112 131 124 118 138 132 129 123 129 141 140 110 118 111 106 118 109 114 142 134 185 149 206 204 203 211 204 199 216 188 198 160 198 201 213 214 238
133 118 122 100 124 130 109 153 104 122 125 128 121 121 114 140 140 134 143 120 121 113 116 169 128 185 178 190 201 189 203 205 197 205 200 204 207 193 201 214 204 206 247
128 139 136 108 110 134 128 133 137 136 130 109 107 106 110 135 148 117 119 106 123 135 135 135 161 148 218 194 193 218 201 206 191 189 194 193 199 195 197 202 206 245 229
137 143 146 126 155 151 165 128 131 144 126 109 107 146 116 131 128 146 115 123 114 160 126 137 163 207 185 192 210 204 207 192 194 188 191 194 191 198 198 212 216 245 230
117 140 145 153 145 101 133 134 137 150 133 157 135 103 135 124 106 127 138 108 124 196 139 192 200 185 171 207 199 201 198 191 182 189 192 184 196 198 193 200 234 230 229
126 138 86 107 147 142 145 142 131 114 146 163 139 137 133 173 126 126 138 130 142 134 193 190 189 187 207 190 200 202 197 194 185 186 190 196 205 187 233 222 220 212 234
146 157 117 111 114 118 128 131 143 143 125 125 125 122 130 134 125 133 189 131 142 195 200 193 189 192 185 192 193 191 187 188 193 188 202 199 194 218 209 219 214 208 226
122 134 138 171 144 140 143 143 142 109 119 145 133 122 128 126 130 119 132 141 196 192 202 147 187 181 193 194 188 189 183 193 193 203 190 201 210 205 216 222 200 218 215
141 119 133 141 148 135 134 138 135 134 140 204 151 139 122 129 142 140 144 193 186 201 145 184 201 189 192 195 193 193 194 201 201 192 193 235 245 228 236 217 233 200 240
140 141 140 124 117 119 135 110 130 133 135 124 127 121 131 127 196 202 192 201 186 193 190 187 188 192 192 188 194 191 192 187 194 206 226 204 215 207 203 202 204 206 213
224 142 128 141 131 126 137 130 139 190 127 124 129 128 167 140 209 194 192 184 188 187 182 198 200 194 193 196 197 196 194 197 213 222 219 213 211 221 213 214 212 212 206
123 132 118 117 120 125 131 135 186 159 128 132 133 143 189 188 176 187 185 191 205 204 202 193 195 191 192 189 195 196 222 230 210 215 215 210 218 219 219 224 227 228 224
121 159 128 129 138 131 132 126 206 138 193 171 196 192 188 183 184 205 206 197 193 192 194 192 195 191 195 192 223 226 213 210 211 263 273 228 231 237 228 232 258 243 234
132 129 147 131 122 124 137 137 134 193 189 194 187 181 206 203 205 209 202 188 193 191 193 188 192 202 226 217 212 215 204 226 228 225 230 231 229 245 240 257 235 227 226
137 139 136 144 207 204 133 135 182 181 197 209 210 212 211 201 192 196 199 199 189 191 192 193 221 208 210 203 210 225 225 228 231 227 226 230 211 214 212 214 209 204 203
217 207 214 128 131 155 185 190 186 190 194 207 208 202 197 195 188 187 183 190 193 193 217 220 205 196 199 207 218 217 212 208 208 215 223 221 217 221 222 208 205 206 204
135 127 200 201 192 186 192 218 233 206 204 200 204 198 195 196 197 201 200 206 241 223 209 195 191 216 212 205 205 199 191 204 212 222 232 230 228 224 218 216 219 213 207
219 224 221 220 218 208 206 203 200 201 193 190 187 185 188 192 191 205 230 219 207 197 190 216 211 203 206 203 194 191 200 199 254 248 245 234 227 224 220 217 214 206 205
214 214 212 216 202 200 196 202 202 199 197 193 197 200 206 223 225 219 207 199 193 219 214 207 206 201 193 195 180 182 189 246 238 224 219 217 218 220 219 212 209 211 217
196 201 199 198 197 197 191 189 183 190 192 193 197 205 225 218 202 194 199 224 212 212 207 199 196 194 195 195 181 192 243 229 217 213 207 205 202 202 203 203 210 209 216
194 197 192 193 201 193 194 206 206 204 206 223 222 214 200 196 187 217 211 199 196 196 198 196 200 193 194 199 191 248 218 206 204 204 200 204 221 224 228 237 238 239 243
207 213 209 210 210 209 206 212 225 213 217 208 198 195 195 198 208 198 195 193 192 189 193 198 201 197 185 207 250 216 202 203 212 213 217 235 254 269 272 275 268 267 281